Change the Weather History Date:

Tuesday, February 26, 2013

  Actual Average Record
Temperature  
Mean Temperature 32 °F -  
Max Temperature 35 °F 38 °F 61 °F (1976)
Min Temperature 30 °F 21 °F -20 °F (1963)
Degree Days  
Heating Degree Days 32    
Moisture  
Dew Point 29 °F    
Average Humidity 82    
Maximum Humidity 96    
Minimum Humidity 64    
Precipitation  
Precipitation 0.56 in - - ()
Sea Level Pressure  
Sea Level Pressure 29.59 in    
Wind  
Wind Speed 14 mph (ENE)    
Max Wind Speed 21 mph    
Max Gust Speed 36 mph    
Visibility 4 miles    
Events Rain , Snow    
Averages and records for this station are not official NWS values.
T = Trace of Precipitation, MM = Missing Value Source: NWS Daily Summary

Daily Weather History Graph

Daily Weather History Graph

Search for Another Location

Airport or City:

Trip Planner

Search our weather history database for the weather conditions in past years. The results will help you decide how hot, cold, wet, or windy it might be!

Date:

Astronomy

Feb. 26, 2013 Rise Set
Actual Time 7:22 AM EST 6:30 PM EST
Civil Twilight 6:54 AM EST 6:58 PM EST
Nautical Twilight 6:22 AM EST 7:30 PM EST
Astronomical Twilight 5:50 AM EST 8:02 PM EST
Moon 7:48 PM EST (2/26) 7:23 AM EST (2/26)
Length of Visible Light 12h 04m
Length of Day
11h 08m
Full, 99% of the Moon is Illuminated
Feb 26
Full
Mar 4
Last Quarter
Mar 11
New
Mar 19
First Quarter
Mar 27
Full

Hourly Weather History & Observations

Time (EST) Temp. Windchill Dew Point Humidity Pressure Visibility Wind Dir Wind Speed Gust Speed Precip Events Conditions
12:53 AM 30.9 °F 21.2 °F 23.0 °F 72% 30.01 in 10.0 mi East 12.7 mph - N/A   Clear
1:53 AM 30.9 °F 22.2 °F 23.0 °F 72% 29.99 in 10.0 mi ENE 10.4 mph - N/A   Clear
2:53 AM 30.9 °F 20.7 °F 23.0 °F 72% 29.95 in 10.0 mi ENE 13.8 mph - N/A   Clear
3:53 AM 30.9 °F 20.2 °F 23.0 °F 72% 29.90 in 10.0 mi ENE 15.0 mph - N/A   Clear
4:53 AM 32.0 °F 21.6 °F 23.0 °F 69% 29.90 in 10.0 mi East 15.0 mph - N/A   Clear
5:53 AM 32.0 °F 22.1 °F 23.0 °F 69% 29.86 in 10.0 mi East 13.8 mph 21.9 mph N/A   Scattered Clouds
6:53 AM 32.0 °F 20.8 °F 23.0 °F 69% 29.84 in 10.0 mi East 17.3 mph 25.3 mph N/A   Clear
7:53 AM 33.1 °F 22.2 °F 23.0 °F 66% 29.82 in 10.0 mi ENE 17.3 mph 25.3 mph N/A   Clear
8:53 AM 34.0 °F - 23.0 °F 64% 29.78 in - North - - N/A   Scattered Clouds
9:46 AM 33.8 °F 22.8 °F 24.8 °F 70% 29.70 in 5.0 mi ENE 18.4 mph 29.9 mph 0.01 in Rain Light Freezing Rain
9:53 AM 34.0 °F 22.4 °F 25.0 °F 70% 29.71 in 4.0 mi ENE 20.7 mph 28.8 mph 0.02 in Rain Light Freezing Rain
10:11 AM 33.8 °F 22.5 °F 26.6 °F 75% 29.67 in 5.0 mi ENE 19.6 mph 33.4 mph 0.02 in Rain Light Freezing Rain
10:53 AM 34.0 °F 22.7 °F 26.1 °F 73% 29.67 in 5.0 mi East 19.6 mph 32.2 mph 0.05 in Rain Light Freezing Rain
11:18 AM 33.8 °F 22.2 °F 26.6 °F 75% 29.61 in 8.0 mi ENE 20.7 mph 32.2 mph 0.02 in Rain Light Rain
11:53 AM 34.0 °F 22.4 °F 27.0 °F 75% 29.60 in 7.0 mi ENE 20.7 mph 35.7 mph 0.03 in Rain Light Rain
12:32 PM 33.8 °F 22.5 °F 28.4 °F 81% 29.55 in 6.0 mi East 19.6 mph 34.5 mph 0.00 in Rain Light Rain
12:53 PM 34.0 °F 23.8 °F 28.0 °F 79% 29.60 in 3.0 mi East 16.1 mph 32.2 mph 0.03 in Rain Light Rain
1:02 PM 33.8 °F 23.5 °F 28.4 °F 81% 29.57 in 2.0 mi East 16.1 mph 23.0 mph 0.03 in Rain Rain
1:24 PM 33.8 °F 23.5 °F 28.4 °F 81% 29.56 in 4.0 mi East 16.1 mph 21.9 mph 0.08 in Rain Light Rain
1:51 PM 33.8 °F 22.8 °F 30.2 °F 87% 29.53 in 4.0 mi East 18.4 mph 31.1 mph 0.10 in Snow Light Snow
1:53 PM 34.0 °F 23.4 °F 30.0 °F 85% 29.56 in 3.0 mi East 17.3 mph 24.2 mph 0.10 in Snow Light Snow
2:22 PM 33.8 °F 22.8 °F 30.2 °F 87% 29.51 in 2.5 mi East 18.4 mph 24.2 mph 0.03 in Snow Light Snow
2:42 PM 33.8 °F 22.8 °F 30.2 °F 87% 29.50 in 3.0 mi East 18.4 mph 27.6 mph 0.05 in Snow Light Snow
2:53 PM 34.0 °F 23.4 °F 30.0 °F 85% 29.52 in 4.0 mi ENE 17.3 mph 21.9 mph 0.05 in Rain Light Rain
3:53 PM 35.1 °F 24.5 °F 30.9 °F 85% 29.51 in 7.0 mi East 18.4 mph 26.5 mph 0.02 in Rain Light Rain
4:32 PM 33.8 °F 22.5 °F 30.2 °F 87% 29.48 in 2.0 mi East 19.6 mph 26.5 mph 0.00 in Rain Light Rain
4:53 PM 34.0 °F 23.8 °F 30.9 °F 89% 29.50 in 2.5 mi ENE 16.1 mph 23.0 mph 0.02 in Snow Light Snow
5:14 PM 33.8 °F 24.3 °F 30.2 °F 87% 29.48 in 4.0 mi ENE 13.8 mph - 0.02 in Rain Light Rain
5:43 PM 33.8 °F 24.3 °F 30.2 °F 87% 29.48 in 1.8 mi ENE 13.8 mph 20.7 mph 0.05 in Snow Light Snow
5:53 PM 34.0 °F 24.6 °F 30.9 °F 89% 29.50 in 0.8 mi ENE 13.8 mph - 0.06 in Snow Light Snow
6:08 PM 33.8 °F 24.3 °F 30.2 °F 87% 29.48 in 1.2 mi ENE 13.8 mph - 0.03 in Snow Light Snow
6:19 PM 33.8 °F 24.8 °F 30.2 °F 87% 29.48 in 2.0 mi ENE 12.7 mph 18.4 mph 0.04 in Snow Light Snow
6:35 PM 33.8 °F 25.8 °F 30.2 °F 87% 29.47 in 5.0 mi ENE 10.4 mph - 0.04 in Snow Light Snow
6:53 PM 34.0 °F 27.2 °F 30.9 °F 89% 29.49 in 6.0 mi ENE 8.1 mph - 0.04 in Snow Light Snow
7:07 PM 33.8 °F 27.0 °F 30.2 °F 87% 29.48 in 2.5 mi ENE 8.1 mph - 0.01 in Snow Light Snow
7:19 PM 33.8 °F 27.0 °F 30.2 °F 87% 29.48 in 1.5 mi NE 8.1 mph - 0.03 in Snow Light Snow
7:51 PM 33.8 °F 27.7 °F 32.0 °F 93% 29.48 in 3.0 mi ENE 6.9 mph - 0.07 in Snow Light Snow
7:53 PM 34.0 °F 28.8 °F 32.0 °F 92% 29.50 in 3.0 mi ENE 5.8 mph - 0.07 in Snow Light Snow
8:39 PM 33.8 °F 27.7 °F 30.2 °F 87% 29.46 in 2.5 mi NE 6.9 mph - 0.02 in Snow Light Snow
8:53 PM 34.0 °F 27.2 °F 30.9 °F 89% 29.48 in 3.0 mi NE 8.1 mph - 0.02 in Snow Light Snow
9:53 PM 34.0 °F 28.8 °F 32.0 °F 92% 29.48 in 3.0 mi NE 5.8 mph - 0.01 in Snow Light Snow
10:02 PM 33.8 °F 28.6 °F 30.2 °F 87% 29.45 in 2.5 mi NE 5.8 mph - 0.00 in Snow Light Snow
10:17 PM 33.8 °F 28.6 °F 30.2 °F 87% 29.45 in 1.8 mi NNE 5.8 mph - 0.01 in Snow Light Snow
10:44 PM 33.8 °F 29.6 °F 32.0 °F 93% 29.45 in 2.0 mi NNE 4.6 mph - 0.02 in Snow Light Snow
10:53 PM 33.1 °F 28.7 °F 32.0 °F 96% 29.47 in 1.8 mi NNE 4.6 mph - 0.02 in Snow Light Snow
11:00 PM 33.8 °F 28.6 °F 32.0 °F 93% 29.45 in 2.0 mi NNE 5.8 mph - 0.00 in Snow Light Snow
11:36 PM 33.8 °F 30.8 °F 32.0 °F 93% 29.44 in 1.5 mi NNE 3.5 mph - 0.02 in Snow Light Snow
11:53 PM 33.1 °F 30.0 °F 30.9 °F 92% 29.47 in 1.8 mi NNE 3.5 mph - 0.02 in Snow Light Snow